CZ-2C DEB

基本信息
目录编号:
35417
目录名称:
CZ-2C DEB
国际标识:
2004-012L
轨道中心:
EARTH
物体状态:
已陨落(2024-05-09)
发射日期:
2004-04-18 UTC
轨道信息
数据来源: 国际轨道数据
星历时间: 2024-05-10T03:47:24+0800
半长轴: 6565.793km
偏心率: 0.0013504
轨道倾角: 97.549°
近地点辐角: 272.055°
升交点赤经: 341.019°
平近点角: 87.919°
近地点: 178.791km
远地点: 196.525km
周期: 88.245分钟
每日圈数: 16.318192
详细信息
发射场:
XSC
轨道高度:
LEO
数据来源:
AOE Integration Group
参考系:
TEME
时间系统:
UTC
历元类型:
SGP4
2D轨道图
3D轨道图
轨道高度分析图
轨道倾角分析图
轨道综合分析图
查看轨道综合分析图